Weather History for K2D5 - November, 2012

Change the Weather History Date:

Sunday, November 11, 2012

  Actual Average (KABR) Record (KABR)
Temperature  
Mean Temperature 19 °F 32 °F  
Max Temperature 24 °F 42 °F 68 °F (1937)
Min Temperature 14 °F 21 °F -8 °F (1966)
Degree Days  
Heating Degree Days 46 33  
Month to date heating degree days 334  
Since 1 July heating degree days 1225  
Cooling Degree Days 0 0  
Month to date cooling degree days 0  
Year to date cooling degree days 525  
Moisture  
Dew Point 14 °F    
Average Humidity 86    
Maximum Humidity 100    
Minimum Humidity 73    
Precipitation  
Precipitation 1.23 in 0.03 in 0.50 in (1915)
Month to date precipitation 0.32  
Year to date precipitation 20.79  
Snow  
Snow 0.00 in - - ()
Month to date snowfall  
Since 1 July snowfall  
Snow Depth -    
Sea Level Pressure  
Sea Level Pressure 29.81 in    
Wind  
Wind Speed 22 mph (West)    
Max Wind Speed 26 mph    
Max Gust Speed 34 mph    
Visibility 8 miles    
Events Rain , Snow    
T = Trace of Precipitation, MM = Missing Value Source: NWS Daily Summary

Daily Weather History Graph

Daily Weather History Graph

Search for Another Location

Airport or City:

Trip Planner

Search our weather history database for the weather conditions in past years. The results will help you decide how hot, cold, wet, or windy it might be!

Date:

Astronomy

Nov. 11, 2012 Rise Set
Actual Time 7:28 AM CST 5:03 PM CST
Civil Twilight 6:56 AM CST 5:36 PM CST
Nautical Twilight 6:19 AM CST 6:12 PM CST
Astronomical Twilight 5:44 AM CST 6:47 PM CST
Moon 4:37 AM CST (11/11) 3:33 PM CST (11/11)
Length of Visible Light 10h 40m
Length of Day
9h 35m
Waning Crescent, 7% of the Moon is Illuminated
Nov 11
Waning Crescent
Nov 13
New
Nov 20
First Quarter
Nov 28
Full
Dec 6
Last Quarter

Hourly Weather History & Observations

Time (CST) Temp. Windchill Dew Point Humidity Pressure Visibility Wind Dir Wind Speed Gust Speed Precip Events Conditions
12:15 AM 24.8 °F 8.7 °F 23.0 °F 93% 29.66 in 10.0 mi WNW 26.5 mph 33.4 mph N/A   Overcast
12:35 AM 24.8 °F 10.3 °F 23.0 °F 93% 29.67 in 10.0 mi WNW 20.7 mph 27.6 mph N/A   Overcast
12:55 AM 24.8 °F 11.9 °F 21.2 °F 86% 29.69 in 10.0 mi WNW 16.1 mph 27.6 mph N/A   Overcast
1:15 AM 23.0 °F 6.9 °F 21.2 °F 93% 29.70 in 10.0 mi WNW 24.2 mph 31.1 mph N/A   Overcast
1:35 AM 23.0 °F 8.0 °F 19.4 °F 86% 29.68 in 10.0 mi WNW 20.7 mph 33.4 mph N/A   Overcast
1:55 AM 23.0 °F 6.9 °F 19.4 °F 86% 29.68 in 10.0 mi WNW 24.2 mph 33.4 mph N/A   Overcast
2:15 AM 23.0 °F 7.6 °F 19.4 °F 86% 29.69 in 10.0 mi WNW 21.9 mph 31.1 mph N/A Rain Light Freezing Rain
2:35 AM 23.0 °F 6.3 °F 19.4 °F 86% 29.69 in 4.0 mi WNW 26.5 mph 34.5 mph 0.01 in Snow Light Snow
2:55 AM 21.2 °F 4.2 °F 21.2 °F 100% 29.70 in 1.2 mi WNW 25.3 mph 29.9 mph 0.38 in Snow Light Snow
3:15 AM 21.2 °F 4.5 °F 19.4 °F 93% 29.72 in 1.5 mi WNW 24.2 mph 31.1 mph 0.32 in Snow Light Snow
3:35 AM 19.4 °F 1.4 °F 19.4 °F 100% 29.73 in 1.8 mi WNW 26.5 mph 32.2 mph 0.48 in Snow Light Snow
3:55 AM 19.4 °F 2.8 °F 19.4 °F 100% 29.74 in 4.0 mi WNW 21.9 mph 29.9 mph 0.51 in Snow Light Snow
4:15 AM 19.4 °F 3.2 °F 19.4 °F 100% 29.75 in 5.0 mi WNW 20.7 mph 29.9 mph 0.01 in Snow Light Snow
4:35 AM 19.4 °F 3.2 °F 17.6 °F 93% 29.76 in 10.0 mi West 20.7 mph 27.6 mph 0.01 in Rain Light Freezing Rain
4:55 AM 19.4 °F 3.6 °F 17.6 °F 93% 29.77 in 10.0 mi West 19.6 mph 24.2 mph 0.01 in Rain Light Freezing Rain
5:35 AM 17.6 °F -0.3 °F 14.0 °F 86% 29.77 in 10.0 mi West 24.2 mph 31.1 mph N/A   Scattered Clouds
5:55 AM 17.6 °F 3.2 °F 14.0 °F 86% 29.79 in 10.0 mi West 15.0 mph 27.6 mph N/A   Scattered Clouds
6:15 AM 17.6 °F 1.7 °F 14.0 °F 86% 29.79 in 10.0 mi West 18.4 mph 26.5 mph N/A   Scattered Clouds
6:35 AM 15.8 °F -1.1 °F 12.2 °F 86% 29.79 in 10.0 mi West 19.6 mph 25.3 mph N/A   Partly Cloudy
7:35 AM 14.0 °F -2.0 °F 10.4 °F 86% 29.80 in 10.0 mi West 16.1 mph 21.9 mph N/A   Clear
7:55 AM 14.0 °F -3.0 °F 10.4 °F 86% 29.80 in 10.0 mi West 18.4 mph - N/A   Clear
8:15 AM 14.0 °F -0.8 °F 10.4 °F 86% 29.82 in 10.0 mi West 13.8 mph 19.6 mph N/A   Partly Cloudy
8:35 AM 14.0 °F -3.0 °F 10.4 °F 86% 29.82 in 10.0 mi West 18.4 mph 24.2 mph N/A   Partly Cloudy
9:15 AM 14.0 °F -5.1 °F 10.4 °F 86% 29.82 in 10.0 mi West 24.2 mph 29.9 mph N/A   Mostly Cloudy
9:35 AM 15.8 °F -2.3 °F 10.4 °F 79% 29.82 in 10.0 mi West 23.0 mph 28.8 mph N/A   Mostly Cloudy
9:55 AM 15.8 °F -1.1 °F 10.4 °F 79% 29.82 in 10.0 mi West 19.6 mph - N/A   Scattered Clouds
10:15 AM 15.8 °F -1.5 °F 10.4 °F 79% 29.82 in 10.0 mi West 20.7 mph 28.8 mph N/A   Scattered Clouds
10:35 AM 15.8 °F -0.2 °F 10.4 °F 79% 29.83 in 10.0 mi West 17.3 mph 23.0 mph N/A   Mostly Cloudy
11:15 AM 15.8 °F -2.3 °F 10.4 °F 79% 29.82 in 10.0 mi West 23.0 mph - N/A   Overcast
11:35 AM 17.6 °F 0.1 °F 10.4 °F 73% 29.82 in 10.0 mi West 23.0 mph 26.5 mph N/A   Overcast
12:15 PM 17.6 °F 0.5 °F 10.4 °F 73% 29.82 in 10.0 mi West 21.9 mph 28.8 mph N/A Snow Light Snow
12:35 PM 17.6 °F 0.9 °F 14.0 °F 86% 29.82 in 10.0 mi West 20.7 mph 27.6 mph N/A   Overcast
12:55 PM 17.6 °F 0.5 °F 12.2 °F 79% 29.82 in 10.0 mi WNW 21.9 mph 27.6 mph N/A   Overcast
1:15 PM 17.6 °F 2.2 °F 12.2 °F 79% 29.83 in 10.0 mi West 17.3 mph - N/A Snow Light Snow
1:35 PM 17.6 °F 0.5 °F 14.0 °F 86% 29.83 in 10.0 mi West 21.9 mph 25.3 mph N/A Snow Light Snow
1:55 PM 17.6 °F 0.1 °F 14.0 °F 86% 29.83 in 10.0 mi West 23.0 mph - N/A   Overcast
2:15 PM 17.6 °F 1.3 °F 12.2 °F 79% 29.83 in 10.0 mi West 19.6 mph - N/A Snow Light Snow
2:35 PM 17.6 °F 0.1 °F 14.0 °F 86% 29.83 in 9.0 mi West 23.0 mph 27.6 mph N/A Snow Light Snow
2:55 PM 17.6 °F 0.5 °F 14.0 °F 86% 29.83 in 9.0 mi West 21.9 mph 25.3 mph N/A Snow Light Snow
3:15 PM 17.6 °F 2.2 °F 12.2 °F 79% 29.84 in 7.0 mi West 17.3 mph 27.6 mph 0.01 in Snow Light Snow
3:35 PM 17.6 °F 0.9 °F 12.2 °F 79% 29.84 in 9.0 mi West 20.7 mph 25.3 mph 0.02 in Snow Light Snow
3:55 PM 17.6 °F -0.3 °F 12.2 °F 79% 29.84 in 10.0 mi West 24.2 mph 27.6 mph 0.03 in Snow Light Snow
4:15 PM 17.6 °F 1.3 °F 12.2 °F 79% 29.85 in 10.0 mi West 19.6 mph 27.6 mph N/A Snow Light Snow
4:35 PM 17.6 °F 0.5 °F 10.4 °F 73% 29.86 in 10.0 mi West 21.9 mph 28.8 mph N/A Snow Light Snow
4:55 PM 17.6 °F 0.1 °F 10.4 °F 73% 29.86 in 10.0 mi West 23.0 mph 28.8 mph N/A   Overcast
5:15 PM 17.6 °F 1.3 °F 10.4 °F 73% 29.86 in 10.0 mi West 19.6 mph 27.6 mph N/A   Overcast
5:35 PM 17.6 °F 0.1 °F 12.2 °F 79% 29.86 in 10.0 mi West 23.0 mph 26.5 mph N/A   Overcast
5:55 PM 17.6 °F 0.1 °F 12.2 °F 79% 29.86 in 10.0 mi West 23.0 mph 28.8 mph N/A   Overcast
6:15 PM 17.6 °F 2.7 °F 12.2 °F 79% 29.86 in 10.0 mi West 16.1 mph 25.3 mph N/A   Overcast
6:35 PM 17.6 °F 1.7 °F 12.2 °F 79% 29.87 in 10.0 mi West 18.4 mph 24.2 mph N/A   Overcast
6:55 PM 17.6 °F 0.9 °F 12.2 °F 79% 29.87 in 10.0 mi West 20.7 mph 29.9 mph N/A Snow Light Snow
7:15 PM 17.6 °F -0.3 °F 12.2 °F 79% 29.86 in 10.0 mi West 24.2 mph 28.8 mph N/A Snow Light Snow
7:35 PM 17.6 °F 0.9 °F 12.2 °F 79% 29.87 in 10.0 mi West 20.7 mph 29.9 mph N/A Snow Light Snow
7:55 PM 17.6 °F 0.1 °F 14.0 °F 86% 29.87 in 10.0 mi West 23.0 mph - N/A   Overcast
8:15 PM 17.6 °F 2.2 °F 14.0 °F 86% 29.87 in 10.0 mi West 17.3 mph 23.0 mph N/A Snow Light Snow
8:35 PM 17.6 °F 2.7 °F 14.0 °F 86% 29.88 in 10.0 mi West 16.1 mph 23.0 mph N/A Snow Light Snow
8:55 PM 17.6 °F 1.3 °F 14.0 °F 86% 29.88 in 10.0 mi West 19.6 mph 26.5 mph N/A   Overcast
9:15 PM 17.6 °F 1.3 °F 14.0 °F 86% 29.88 in 10.0 mi West 19.6 mph 25.3 mph N/A   Overcast
9:35 PM 17.6 °F 1.7 °F 14.0 °F 86% 29.88 in 10.0 mi West 18.4 mph 25.3 mph N/A Snow Light Snow
9:55 PM 17.6 °F 4.3 °F 15.8 °F 93% 29.88 in 4.0 mi West 12.7 mph 20.7 mph 0.03 in Snow Light Snow
10:15 PM 17.6 °F 3.2 °F 17.6 °F 100% 29.88 in 4.0 mi West 15.0 mph - 0.02 in Snow Light Snow
10:35 PM 17.6 °F 2.2 °F 17.6 °F 100% 29.88 in 3.0 mi West 17.3 mph 21.9 mph 0.09 in Snow Light Snow
10:55 PM 17.6 °F 0.1 °F 17.6 °F 100% 29.87 in 2.0 mi WNW 23.0 mph 29.9 mph 0.14 in Snow Light Snow
11:15 PM 17.6 °F 0.1 °F 17.6 °F 100% 29.88 in 2.0 mi West 23.0 mph 29.9 mph 0.05 in Snow Light Snow
11:35 PM 17.6 °F -0.6 °F 15.8 °F 93% 29.88 in 4.0 mi West 25.3 mph 29.9 mph 0.11 in Snow Light Snow
11:55 PM 17.6 °F -0.6 °F 15.8 °F 93% 29.88 in 3.0 mi WNW 25.3 mph 29.9 mph 0.13 in Snow Light Snow